STARLINK-1204 (45203 NORAD) Tracking and Keplerian Element Data

This shows tracking and keplerian element data for the satellite.

Feedback or suggestion? Click here.




ElementValue
Catalog45203
NameSTARLINK-1204
Epoch Orbit2168
Epoch Day187.50002315
Epoch Year2020
RAAN333.5328
Inclination52.9977
Eccentricity0.0001502
Argument of Perigee110.3974
Mean Anonmoly168.3467
Mean Motion15.05580304
Decay Rate-0.00021346
L11 45203U 20012AB 20187.50002315 -.00021346 00000-0 -14502-2 0 9995
L22 45203 52.9977 333.5328 0001502 110.3974 168.3467 15.05580304 21688

Live tracking and technical data element details for STARLINK-1204 (NORAD 45203). STARLINK-1204 can be tracked NOW for your location showing map with azimuth and elevation plus other details from your city location.

Track the satellite on the map from your city or location and see movement details for azimuth, elevation, latitude, longitude, range, height, and movement on the map or in text.







IsCatalogInMostPopularTable: catalog: 45203, numindb: 32
Update: records affected: 1



GetName: 45203 STARLINK-1204

Hit Count: updated at: Mon, 06 Jul 2020 06:33:04 GMT